Погода в Хойниках

Беларусь     51°53′13″N   29°58′02″E
темп.,
°C
ветер,
м/с
пор.,
м/с
влажн.,
%
обл.,
%
осадки,
мм/ч
давл.,
гПа
погр.,
м
23 апреля, пт
пт2300:00+8зюз2397100 0.3 101373
03:00+6зсз4793100 4.4 1014645
06:00+5юз2693100 1.6 1015320
09:00+6з3777100 1.6 1016560
12:00+9з5750100 0.0 10161571
15:00+11з4737100 0.0 10152536
18:00+9зсз475210 0.1 10151542
21:00+4з387597 0.3 1016205
24 апреля, сб
сб2400:00+3з3107977 0.0 1016365
03:00+2з411804 0.0 1016595
06:000з4118274 0.0 1016636
09:00+3зсз696679 0.0 10161167
12:00+5зсз795888 0.4 10171653
15:00+7зсз694484 0.4 10172257
18:00+7зсз584354 0.0 10182071
21:00+2зюз267552 0.1 1019125
25 апреля, вс
вс2500:00+1юз377738 0.0 1019149
03:00−1зюз288412 0.0 1018159
06:000зюз2782100 0.0 1017180
09:00+2зсз3682100 0.4 1017706
12:00+5з4656100 0.1 10171602
15:00+7зсз5644100 0.2 10172046
18:00+6зсз474991 0.0 10171767
21:00+1зюз37735 0.0 1018124
26 апреля, пн
пн2600:000зюз377823 0.0 1018138
03:00−1юз388511 0.0 1017177
06:00−1юз288987 0.0 1016184
09:00+4з476842 0.3 10171036
12:00+6з5841100 0.4 10162394
15:00+8з5738100 0.4 10152475
18:00+7з464661 0.0 10151906
21:00+2зюз227054 0.1 101517
27 апреля, вт
вт2700:000юз22725 0.0 101532
03:000ю2271100 0.0 101427
06:00+1з2674100 0.0 1014179
09:00+3зюз117696 0.1 1015367
12:00+10юз114641 0.0 10141524
15:00+10з3441100 0.1 10132071
18:00+10зсз343968 0.0 10131945
21:00+5вюв11625 0.0 101512